Weather History for KHDE - March, 2012

Change the Weather History Date:

Tuesday, March 20, 2012

  Actual Average Record
Temperature  
Mean Temperature 48 °F -  
Max Temperature 56 °F 53 °F 80 °F (1997)
Min Temperature 41 °F 27 °F 5 °F (1965)
Degree Days  
Heating Degree Days 17    
Moisture  
Dew Point 40 °F    
Average Humidity 73    
Maximum Humidity 96    
Minimum Humidity 54    
Precipitation  
Precipitation 0.00 in - - ()
Sea Level Pressure  
Sea Level Pressure 29.83 in    
Wind  
Wind Speed 11 mph (NNE)    
Max Wind Speed 24 mph    
Max Gust Speed 29 mph    
Visibility 9 miles    
Events      
Averages and records for this station are not official NWS values.
T = Trace of Precipitation, MM = Missing Value Source: NWS Daily Summary

Daily Weather History Graph

Daily Weather History Graph

Search for Another Location

Airport or City:

Trip Planner

Search our weather history database for the weather conditions in past years. The results will help you decide how hot, cold, wet, or windy it might be!

Date:

Astronomy

Mar. 20, 2012 Rise Set
Actual Time 7:39 AM CDT 7:50 PM CDT
Civil Twilight 7:12 AM CDT 8:17 PM CDT
Nautical Twilight 6:40 AM CDT 8:49 PM CDT
Astronomical Twilight 6:08 AM CDT 9:21 PM CDT
Moon 6:23 AM CDT (3/20) 6:19 PM CDT (3/20)
Length of Visible Light 13h 04m
Length of Day
12h 10m
Waning Crescent, 4% of the Moon is Illuminated
Mar 20
Waning Crescent
Mar 22
New
Mar 30
First Quarter
Apr 6
Full
Apr 13
Last Quarter

Hourly Weather History & Observations

Time (CDT) Temp. Windchill Dew Point Humidity Pressure Visibility Wind Dir Wind Speed Gust Speed Precip Events Conditions
3:55 AM 45.9 °F 41.7 °F 44.1 °F 93% 29.66 in 7.0 mi SSE 8.1 mph - N/A   Clear
4:15 AM 45.1 °F 42.0 °F 43.7 °F 95% 29.65 in 5.0 mi SSE 5.8 mph - N/A   Clear
4:35 AM 44.6 °F 40.7 °F 43.0 °F 94% 29.65 in 7.0 mi SE 6.9 mph - N/A   Clear
4:55 AM 45.1 °F 40.8 °F 43.9 °F 95% 29.67 in 7.0 mi SE 8.1 mph - N/A   Mostly Cloudy
5:15 AM 46.4 °F 41.1 °F 45.1 °F 95% 29.68 in 7.0 mi SSE 11.5 mph - N/A   Overcast
5:35 AM 46.4 °F 41.1 °F 45.1 °F 95% 29.68 in 10.0 mi South 11.5 mph - N/A   Mostly Cloudy
5:55 AM 45.7 °F 39.8 °F 44.1 °F 94% 29.71 in 10.0 mi NNW 12.7 mph - N/A   Mostly Cloudy
6:15 AM 45.7 °F 42.7 °F 44.2 °F 95% 29.71 in 5.0 mi North 5.8 mph - N/A   Overcast
6:35 AM 44.8 °F 41.0 °F 43.3 °F 95% 29.72 in 7.0 mi ESE 6.9 mph - N/A   Scattered Clouds
7:15 AM 42.6 °F 40.9 °F 41.2 °F 95% 29.74 in 5.0 mi NE 3.5 mph - N/A   Clear
7:35 AM 42.3 °F 38.6 °F 41.0 °F 95% 29.75 in 4.0 mi North 5.8 mph - N/A   Clear
7:55 AM 41.7 °F 36.7 °F 40.5 °F 95% 29.77 in 4.0 mi NNE 8.1 mph - N/A   Clear
8:15 AM 41.9 °F 36.9 °F 40.6 °F 95% 29.77 in 7.0 mi North 8.1 mph - N/A   Clear
8:35 AM 44.2 °F 40.3 °F 43.0 °F 95% 29.79 in 5.0 mi NNE 6.9 mph - N/A   Scattered Clouds
8:55 AM 45.7 °F 39.8 °F 44.6 °F 96% 29.82 in 10.0 mi NNE 12.7 mph - N/A   Overcast
9:15 AM 46.4 °F 39.8 °F 43.2 °F 88% 29.84 in 10.0 mi NNE 16.1 mph - N/A   Overcast
9:35 AM 45.7 °F 38.3 °F 40.1 °F 81% 29.85 in 10.0 mi North 18.4 mph - N/A   Overcast
9:55 AM 45.7 °F 37.1 °F 39.7 °F 80% 29.85 in 10.0 mi NNE 24.2 mph 28.8 mph N/A   Overcast
10:15 AM 45.3 °F 37.6 °F 37.8 °F 75% 29.87 in 10.0 mi NNE 19.6 mph 28.8 mph N/A   Overcast
10:35 AM 46.4 °F 38.7 °F 38.7 °F 74% 29.87 in 10.0 mi NNE 20.7 mph - N/A   Mostly Cloudy
10:55 AM 47.5 °F - 39.0 °F 72% 29.88 in 10.0 mi NNE 20.7 mph 25.3 mph N/A   Mostly Cloudy
11:15 AM 48.4 °F - 39.4 °F 71% 29.88 in 10.0 mi NNE 17.3 mph - N/A   Scattered Clouds
11:35 AM 49.5 °F - 40.3 °F 71% 29.87 in 10.0 mi NE 18.4 mph - N/A   Clear
11:55 AM 50.7 °F - 40.5 °F 68% 29.87 in 10.0 mi NNE 17.3 mph - N/A   Clear
12:15 PM 52.0 °F - 40.8 °F 66% 29.87 in 10.0 mi NNE 16.1 mph - N/A   Clear
12:35 PM 52.2 °F - 40.5 °F 64% 29.87 in 10.0 mi NNE 13.8 mph - N/A   Clear
1:15 PM 53.6 °F - 40.5 °F 61% 29.86 in 10.0 mi North 13.8 mph - N/A   Scattered Clouds
1:35 PM 53.6 °F - 40.1 °F 60% 29.85 in 10.0 mi North 16.1 mph - N/A   Mostly Cloudy
1:55 PM 53.6 °F - 39.7 °F 59% 29.84 in 10.0 mi North 13.8 mph - N/A   Overcast
2:15 PM 53.2 °F - 39.7 °F 60% 29.85 in 10.0 mi NNE 13.8 mph - N/A   Overcast
2:35 PM 53.2 °F - 39.6 °F 60% 29.85 in 10.0 mi NNE 13.8 mph - N/A   Overcast
2:55 PM 53.6 °F - 39.7 °F 59% 29.83 in 10.0 mi NNE 15.0 mph - N/A   Overcast
3:15 PM 53.6 °F - 39.2 °F 58% 29.84 in 10.0 mi NNE 13.8 mph - N/A   Overcast
3:35 PM 54.7 °F - 39.2 °F 56% 29.84 in 10.0 mi NNE 12.7 mph - N/A   Overcast
3:55 PM 55.2 °F - 39.2 °F 55% 29.84 in 10.0 mi NNE 16.1 mph - N/A   Mostly Cloudy
4:15 PM 55.4 °F - 39.2 °F 54% 29.84 in 10.0 mi NNE 16.1 mph - N/A   Mostly Cloudy
4:35 PM 55.4 °F - 39.2 °F 54% 29.83 in 10.0 mi NNE 17.3 mph 24.2 mph N/A   Mostly Cloudy
4:55 PM 54.7 °F - 38.5 °F 54% 29.83 in 10.0 mi NNE 16.1 mph - N/A   Overcast
5:15 PM 54.7 °F - 38.5 °F 54% 29.84 in 10.0 mi NNE 17.3 mph 21.9 mph N/A   Overcast
5:35 PM 53.6 °F - 38.3 °F 56% 29.84 in 10.0 mi NE 10.4 mph - N/A   Overcast
5:55 PM 53.8 °F - 38.5 °F 56% 29.85 in 10.0 mi NE 17.3 mph - N/A   Overcast
6:35 PM 53.4 °F - 38.5 °F 57% 29.86 in 10.0 mi NNE 15.0 mph - N/A   Overcast
6:55 PM 53.2 °F - 38.7 °F 58% 29.87 in 10.0 mi NE 13.8 mph - N/A   Overcast
7:15 PM 52.7 °F - 39.4 °F 61% 29.87 in 10.0 mi NE 10.4 mph - N/A   Overcast
7:35 PM 52.2 °F - 39.4 °F 62% 29.87 in 10.0 mi NE 9.2 mph - N/A   Overcast
7:55 PM 50.5 °F - 39.9 °F 67% 29.87 in 10.0 mi NE 9.2 mph - N/A   Overcast
8:15 PM 50.0 °F - 40.1 °F 69% 29.88 in 10.0 mi NE 6.9 mph - N/A   Overcast
8:35 PM 49.3 °F - 40.3 °F 71% 29.87 in 10.0 mi NE 4.6 mph - N/A   Overcast
8:55 PM 48.4 °F - 40.1 °F 73% 29.88 in 10.0 mi NNE 4.6 mph - N/A   Overcast
9:15 PM 48.4 °F - 40.3 °F 74% 29.88 in 10.0 mi North 3.5 mph - N/A   Overcast
9:35 PM 48.4 °F - 40.3 °F 74% 29.88 in 10.0 mi NNW 4.6 mph - N/A   Overcast
9:55 PM 48.9 °F - 40.3 °F 72% 29.89 in 10.0 mi NW 5.8 mph - N/A   Overcast
10:15 PM 48.2 °F - 41.4 °F 77% 29.90 in 10.0 mi NW 5.8 mph - N/A   Overcast
10:35 PM 49.1 °F - 40.6 °F 73% 29.90 in 10.0 mi NW 6.9 mph - N/A   Overcast
10:55 PM 48.7 °F - 39.2 °F 70% 29.91 in 10.0 mi NNW 6.9 mph - N/A   Overcast
11:15 PM 48.4 °F - 38.3 °F 68% 29.91 in 10.0 mi NNW 8.1 mph - N/A   Overcast
11:35 PM 47.5 °F - 37.4 °F 68% 29.92 in 10.0 mi NNW 6.9 mph - N/A   Mostly Cloudy
11:55 PM 47.8 °F - 36.9 °F 66% 29.91 in 10.0 mi North 6.9 mph - N/A   Overcast